Location: Paddlesworth
(51.1000°N, 1.1333°E)
Time: 08:29:48
(UTC+00:00)

Cosmos 1703 Rocket - Pass Details

Date: 11 May 2021
Orbit: 606 x 633 km, 82.5° (Epoch: 20 June)

Event Time Altitude Azimuth Distance (km) Brightness Sun altitude
Exits shadow 23:48:51 54° 207° (SSW) 756 3.6 -20.8°
Maximum altitude 23:49:49 79° 281° (W) 637 3.5 -20.8°
Drops below altitude 10° 23:54:15 10° 8° (N) 2,003 7.3 -20.8°
Sets 23:56:31 0° 10° (N) 2,919 8.5 -20.8°
